Location: Chuathbaluk
(61.5726°N, 159.2454°W)
Time: 14:37:55
(UTC+00:00)

SR - Pass Details

Date: 04 December 2020
Orbit: 575 x 880 km, 66.7° (Epoch: 17 January)

Event Time Altitude Azimuth Distance (km) Brightness Sun altitude
Rises 05:35:04 0° 233° (SW) 2,891 ? -27.5°
Reaches altitude 10° 05:37:15 10° 233° (SW) 2,023 ? -27.8°
Enters shadow 05:40:37 51° 233° (SW) 840 ? -28.2°
